WJA2512 CYYZ-TBPB

Flight info

Callsign WJA2512
Flight time N/A
Altitude 35000
Route KEPTA3BMPAH/06L KEPTA3 BMPAH DCT AEVON DCT EXTOL Q140 ARRKK DCT JFK DCT SHIPP Y483 SHERL DCT ICCEY Y488 OHRYN Y482 SQUAD/M080F330 DCT DARUX L456 PRCHA/M080F350 L456 HANCY/N0471F350 L456 THANK DCT ELOPO UB520 ANU UA632 BGI
Aircraft B738/M-VGDW/C

Departure

Time N/A
Airport Toronto Pearson International Airport (CYYZ)

Arrival

Time 2026-04-30 20:13
Airport Grantley Adams International Airport (TBPB)
Time Latitude Longitude Altitude Speed Heading
2026-04-30 20:04 13.32776 -59.80147 7575 ft 265 kts 155°
2026-04-30 20:04 13.31068 -59.79413 7240 ft 263 kts 155°
2026-04-30 20:04 13.29376 -59.78685 6911 ft 260 kts 155°
2026-04-30 20:05 13.26064 -59.77262 6261 ft 255 kts 156°
2026-04-30 20:05 13.24432 -59.76560 5943 ft 253 kts 155°
2026-04-30 20:05 13.21195 -59.75173 5307 ft 246 kts 155°
2026-04-30 20:06 13.19621 -59.74496 4996 ft 241 kts 154°
2026-04-30 20:06 13.18089 -59.73835 4691 ft 237 kts 155°
2026-04-30 20:06 13.16577 -59.73185 4501 ft 228 kts 154°
2026-04-30 20:06 13.15146 -59.72574 4428 ft 215 kts 154°
2026-04-30 20:07 13.13805 -59.71999 4350 ft 205 kts 154°
2026-04-30 20:07 13.12519 -59.71450 4291 ft 194 kts 155°
2026-04-30 20:07 13.09920 -59.70724 3867 ft 191 kts 163°
2026-04-30 20:08 13.08613 -59.70412 3653 ft 190 kts 162°
2026-04-30 20:08 13.07344 -59.70094 3479 ft 185 kts 162°
2026-04-30 20:08 13.06086 -59.69772 3327 ft 184 kts 161°
2026-04-30 20:08 13.04849 -59.69418 3190 ft 181 kts 154°
2026-04-30 20:09 13.03838 -59.68713 3068 ft 175 kts 123°
2026-04-30 20:09 13.03332 -59.67608 2959 ft 171 kts 102°
2026-04-30 20:09 13.03494 -59.65209 2668 ft 170 kts 74°
2026-04-30 20:10 13.04115 -59.62867 2331 ft 169 kts 77°
2026-04-30 20:10 13.04399 -59.61685 2185 ft 169 kts 77°
2026-04-30 20:10 13.04684 -59.60515 2037 ft 170 kts 77°
2026-04-30 20:11 13.05294 -59.58243 1938 ft 155 kts 76°
2026-04-30 20:11 13.05556 -59.57130 1727 ft 168 kts 79°
2026-04-30 20:11 13.05807 -59.55994 1585 ft 151 kts 78°
2026-04-30 20:12 13.06298 -59.53965 740 ft 144 kts 78°
2026-04-30 20:12 13.06545 -59.52986 544 ft 142 kts 78°
2026-04-30 20:12 13.06780 -59.52009 426 ft 141 kts 78°
2026-04-30 20:13 13.07024 -59.51030 257 ft 141 kts 79°
2026-04-30 20:13 13.07238 -59.50100 175 ft 113 kts 81°
2026-04-30 20:13 13.07368 -59.49584 171 ft 25 kts 72°
2026-04-30 20:13 13.07422 -59.49388 171 ft 34 kts 77°
2026-04-30 20:14 13.07471 -59.49168 172 ft 26 kts 72°
2026-04-30 20:14 13.07534 -59.49000 174 ft 23 kts 51°
2026-04-30 20:14 13.07641 -59.48883 174 ft 20 kts 41°
2026-04-30 20:14 13.07689 -59.48838 174 ft 8 kts 44°
2026-04-30 20:15 13.07736 -59.48786 176 ft 9 kts 49°
2026-04-30 20:15 13.07774 -59.48741 177 ft 7 kts 48°
2026-04-30 20:15 13.07812 -59.48735 177 ft 4 kts 346°
2026-04-30 20:15 13.07848 -59.48744 178 ft 4 kts 344°
2026-04-30 20:16 13.07877 -59.48752 179 ft 3 kts 346°
2026-04-30 20:16 13.07881 -59.48753 179 ft 0 kts 346°